Weather History for Pinedale, WY

Change the Weather History Date:

Thursday, February 23, 2012

  Actual Average (KBPI) Record (KBPI)
Temperature  
Mean Temperature 13 °F 17 °F  
Max Temperature 23 °F 32 °F 44 °F (1995)
Min Temperature 3 °F 3 °F -19 °F (1993)
Degree Days  
Heating Degree Days 52 48  
Month to date heating degree days 1179  
Since 1 July heating degree days 7292  
Cooling Degree Days 0 0  
Month to date cooling degree days 0  
Year to date cooling degree days 0  
Moisture  
Dew Point 7 °F    
Average Humidity 71    
Maximum Humidity 91    
Minimum Humidity 49    
Precipitation  
Precipitation 0.00 in 0.01 in 0.01 in (2001)
Month to date precipitation 0.29  
Year to date precipitation 0.60  
Sea Level Pressure  
Sea Level Pressure 29.90 in    
Wind  
Wind Speed 14 mph (WNW)    
Max Wind Speed 24 mph    
Max Gust Speed 30 mph    
Visibility 9 miles    
Events Snow    
T = Trace of Precipitation, MM = Missing Value Source: NWS Daily Summary

Daily Weather History Graph

Daily Weather History Graph

Search for Another Location

Airport:

Trip Planner

Search our weather history database for the weather conditions in past years. The results will help you decide how hot, cold, wet, or windy it might be!

Date:

Astronomy

Feb. 23, 2012 Rise Set
Actual Time 7:05 AM MST 6:00 PM MST
Civil Twilight 6:36 AM MST 6:29 PM MST
Nautical Twilight 6:03 AM MST 7:02 PM MST
Astronomical Twilight 5:31 AM MST 7:34 PM MST
Moon 7:29 AM MST (2/23) 8:14 PM MST (2/23)
Length of Visible Light 11h 52m
Length of Day
10h 55m
Waxing Crescent, 3% of the Moon is Illuminated
Feb 23
Waxing Crescent
Feb 29
First Quarter
Mar 8
Full
Mar 14
Last Quarter
Mar 22
New

Hourly Weather History & Observations

Time (MST) Temp. Windchill Dew Point Humidity Pressure Visibility Wind Dir Wind Speed Gust Speed Precip Events Conditions
12:15 AM 20.8 °F 4.7 °F 18.5 °F 91% 29.69 in 1.0 mi WNW 21.9 mph - N/A Snow Light Snow
12:35 AM 20.8 °F 4.0 °F 17.8 °F 88% 29.71 in 2.5 mi WNW 24.2 mph 29.9 mph N/A Snow Light Snow
12:55 AM 20.8 °F 5.5 °F 17.1 °F 85% 29.72 in 2.5 mi WNW 19.6 mph 27.6 mph N/A Snow Light Snow
1:15 AM 19.9 °F 3.9 °F 17.1 °F 89% 29.73 in 1.2 mi WNW 20.7 mph - N/A Snow Light Snow
1:35 AM 20.3 °F 7.2 °F 14.2 °F 77% 29.74 in 5.0 mi WNW 13.8 mph 19.6 mph N/A   Haze
1:55 AM 18.9 °F 5.3 °F 11.7 °F 74% 29.74 in 10.0 mi WNW 13.8 mph 18.4 mph N/A   Overcast
2:15 AM 17.6 °F 7.3 °F 10.9 °F 75% 29.75 in 10.0 mi NW 8.1 mph - N/A   Overcast
2:35 AM 16.9 °F 5.5 °F 9.5 °F 73% 29.75 in 10.0 mi NW 9.2 mph 18.4 mph N/A   Overcast
2:55 AM 16.5 °F 0.8 °F 6.8 °F 66% 29.77 in 10.0 mi WNW 17.3 mph - N/A   Mostly Cloudy
3:15 AM 14.9 °F -0.3 °F 5.0 °F 65% 29.78 in 10.0 mi West 15.0 mph - N/A   Scattered Clouds
3:35 AM 12.9 °F -0.2 °F 4.1 °F 68% 29.79 in 10.0 mi WNW 10.4 mph - N/A   Mostly Cloudy
3:55 AM 12.9 °F 0.7 °F 3.2 °F 65% 29.79 in 10.0 mi West 9.2 mph - N/A   Mostly Cloudy
4:15 AM 11.7 °F -2.5 °F 3.2 °F 69% 29.81 in 10.0 mi WNW 11.5 mph - N/A   Overcast
4:35 AM 10.4 °F -4.1 °F 2.5 °F 70% 29.81 in 10.0 mi West 11.5 mph - N/A   Mostly Cloudy
4:55 AM 9.7 °F -5.0 °F 2.1 °F 71% 29.82 in 10.0 mi West 11.5 mph - N/A   Mostly Cloudy
5:15 AM 9.5 °F -5.2 °F 2.1 °F 72% 29.83 in 10.0 mi West 11.5 mph - N/A   Overcast
5:35 AM 8.1 °F -7.0 °F 1.2 °F 74% 29.84 in 10.0 mi West 11.5 mph - N/A   Overcast
5:55 AM 7.3 °F -6.2 °F 0.7 °F 74% 29.85 in 10.0 mi WNW 9.2 mph - N/A   Mostly Cloudy
6:15 AM 5.9 °F -8.0 °F -0.4 °F 75% 29.85 in 10.0 mi WNW 9.2 mph - N/A   Mostly Cloudy
6:35 AM 5.4 °F -7.6 °F -0.6 °F 76% 29.85 in 10.0 mi West 8.1 mph - N/A   Mostly Cloudy
6:55 AM 4.6 °F -2.5 °F -0.4 °F 80% 29.87 in 10.0 mi WNW 3.5 mph - N/A   Mostly Cloudy
7:15 AM 5.9 °F -1.1 °F 0.7 °F 79% 29.87 in 10.0 mi NW 3.5 mph - N/A   Scattered Clouds
7:35 AM 3.9 °F -8.2 °F -0.6 °F 82% 29.89 in 10.0 mi West 6.9 mph - N/A   Clear
7:55 AM 3.9 °F -9.4 °F -0.2 °F 83% 29.90 in 10.0 mi West 8.1 mph - N/A   Clear
8:15 AM 3.7 °F -5.5 °F -0.8 °F 82% 29.90 in 10.0 mi NW 4.6 mph - N/A   Clear
8:35 AM 3.6 °F - -0.6 °F 83% 29.92 in 10.0 mi Calm Calm - N/A   Clear
8:55 AM 5.7 °F -6.1 °F 0.9 °F 80% 29.92 in 10.0 mi NW 6.9 mph - N/A   Clear
9:15 AM 8.1 °F -4.3 °F 2.5 °F 78% 29.93 in 10.0 mi West 8.1 mph - N/A   Clear
9:35 AM 10.9 °F 0.2 °F 4.3 °F 75% 29.93 in 10.0 mi West 6.9 mph - N/A   Clear
9:55 AM 12.2 °F 1.7 °F 5.2 °F 73% 29.95 in 10.0 mi WNW 6.9 mph - N/A   Clear
10:15 AM 14.2 °F 3.1 °F 6.8 °F 73% 29.95 in 10.0 mi WNW 8.1 mph - N/A   Clear
10:35 AM 15.6 °F 4.0 °F 7.9 °F 72% 29.96 in 10.0 mi WNW 9.2 mph - N/A   Clear
10:55 AM 17.2 °F 6.8 °F 8.8 °F 69% 29.96 in 10.0 mi WNW 8.1 mph - N/A   Clear
11:15 AM 18.5 °F 6.1 °F 8.4 °F 65% 29.97 in 10.0 mi WNW 11.5 mph - N/A   Scattered Clouds
11:35 AM 19.8 °F 6.5 °F 8.6 °F 62% 29.97 in 10.0 mi NW 13.8 mph - N/A   Scattered Clouds
11:55 AM 21.2 °F 7.8 °F 8.2 °F 57% 29.97 in 10.0 mi NW 15.0 mph - N/A   Clear
12:15 PM 22.1 °F 8.5 °F 8.4 °F 56% 29.97 in 10.0 mi WNW 16.1 mph - N/A   Mostly Cloudy
12:35 PM 21.4 °F 9.7 °F 7.9 °F 56% 29.97 in 10.0 mi WNW 11.5 mph - N/A   Overcast
12:55 PM 21.9 °F 9.2 °F 7.7 °F 54% 29.96 in 10.0 mi WNW 13.8 mph - N/A   Overcast
1:15 PM 23.0 °F 8.7 °F 6.3 °F 49% 29.95 in 10.0 mi WNW 18.4 mph - N/A   Overcast
1:35 PM 23.2 °F 7.8 °F 6.8 °F 50% 29.95 in 10.0 mi WNW 21.9 mph 27.6 mph N/A   Overcast
1:55 PM 22.8 °F 8.1 °F 9.9 °F 58% 29.95 in 10.0 mi West 19.6 mph 23.0 mph N/A   Overcast
2:15 PM 22.6 °F 7.9 °F 10.8 °F 60% 29.96 in 10.0 mi West 19.6 mph 25.3 mph N/A   Overcast
2:35 PM 21.6 °F 7.3 °F 12.2 °F 67% 29.96 in 10.0 mi West 17.3 mph 24.2 mph N/A   Mostly Cloudy
2:55 PM 21.9 °F 8.7 °F 10.9 °F 63% 29.97 in 10.0 mi West 15.0 mph - N/A   Scattered Clouds
3:15 PM 21.6 °F 6.9 °F 10.0 °F 61% 29.97 in 10.0 mi West 18.4 mph 27.6 mph N/A   Clear
3:35 PM 21.2 °F 7.3 °F 11.1 °F 65% 29.98 in 10.0 mi West 16.1 mph - N/A   Clear
3:55 PM 20.8 °F 6.4 °F 9.5 °F 62% 29.98 in 10.0 mi WNW 17.3 mph 20.7 mph N/A   Clear
4:15 PM 20.5 °F 7.4 °F 9.1 °F 62% 29.98 in 10.0 mi WNW 13.8 mph - N/A   Clear
4:35 PM 19.9 °F 6.7 °F 8.4 °F 61% 29.99 in 10.0 mi WNW 13.8 mph - N/A   Clear
4:55 PM 19.2 °F 6.4 °F 8.6 °F 63% 30.00 in 10.0 mi WNW 12.7 mph - N/A   Clear
5:15 PM 16.5 °F 3.6 °F 6.8 °F 66% 30.00 in 10.0 mi West 11.5 mph - N/A   Clear
5:35 PM 16.2 °F 2.5 °F 7.2 °F 68% 30.01 in 10.0 mi West 12.7 mph - N/A   Clear
5:55 PM 13.3 °F 0.3 °F 5.9 °F 72% 30.01 in 10.0 mi West 10.4 mph - N/A   Scattered Clouds
6:15 PM 12.2 °F 0.7 °F 5.7 °F 75% 30.02 in 10.0 mi NW 8.1 mph - N/A   Mostly Cloudy
6:35 PM 13.1 °F 1.8 °F 6.8 °F 76% 30.02 in 10.0 mi WNW 8.1 mph - N/A   Overcast
6:55 PM 12.9 °F 1.6 °F 6.6 °F 76% 30.03 in 10.0 mi NW 8.1 mph - N/A   Mostly Cloudy
7:15 PM 8.4 °F -1.6 °F 3.7 °F 81% 30.03 in 10.0 mi NW 5.8 mph - N/A   Scattered Clouds
7:35 PM 7.0 °F -5.7 °F 3.6 °F 86% 30.04 in 10.0 mi NNW 8.1 mph - N/A   Scattered Clouds
7:55 PM 4.8 °F -7.1 °F 0.5 °F 82% 30.04 in 10.0 mi NW 6.9 mph - N/A   Clear
8:15 PM 5.4 °F -3.6 °F 3.9 °F 94% 30.05 in 10.0 mi West 4.6 mph - N/A   Scattered Clouds
8:35 PM 3.7 °F -7.1 °F 2.5 °F 94% 30.05 in 10.0 mi WNW 5.8 mph - N/A   Clear
8:55 PM 2.3 °F -8.8 °F 0.9 °F 94% 30.05 in 10.0 mi WNW 5.8 mph - N/A   Scattered Clouds
9:15 PM 3.0 °F -9.3 °F 1.0 °F 91% 30.05 in 10.0 mi West 6.9 mph - N/A   Overcast
9:35 PM 4.1 °F -6.7 °F 2.3 °F 92% 30.05 in 10.0 mi WNW 5.8 mph - N/A   Overcast
9:55 PM 5.5 °F - 3.7 °F 92% 30.05 in 4.0 mi Calm Calm - N/A Snow Light Snow
10:15 PM 5.9 °F - 4.1 °F 92% 30.06 in 5.0 mi Calm Calm - N/A Snow Light Snow
10:35 PM 6.4 °F - 4.8 °F 93% 30.06 in 4.0 mi Calm Calm - N/A Snow Light Snow
10:55 PM 6.8 °F -0.1 °F 5.2 °F 93% 30.06 in 3.0 mi West 3.5 mph - N/A Snow Light Snow
11:15 PM 7.2 °F - 5.7 °F 94% 30.06 in 2.5 mi Calm Calm - N/A Snow Light Snow
11:35 PM 8.1 °F - 6.6 °F 94% 30.06 in 2.5 mi Calm Calm - N/A Snow Light Snow
11:55 PM 8.8 °F - 7.7 °F 95% 30.06 in 4.0 mi Calm Calm - N/A Snow Light Snow